Latest Coastal Weather Observations for Wilsons Promontory

IDV60701

Issued at 5:02 pm EST Tuesday 27 September 2016 (issued every 10 minutes, with the page automatically refreshed every 10 minutes)

About coastal observations | Map of coastal stations | Coastal observations for VIC | Marine services | Other Formats
Station Details ID: 085096 Name: WILSONS PROMONTORY LIGHTHOUSE Lat: -39.13 Lon: 146.42 Height: 95.0 m
Data from the previous 72 hours. | See also: Recent months at Wilsons Promontory
Date/Time
EST
Temp
°C
Wind Pressure Rain since
9am
mm
Weather Cloud Vis
km
Sea
Height
m
Swell
Dir  Spd
kts
Gust
kts
hPa Trend Height
m
Period
s
Dir
27/05:00pm 11.0 W 18 28 1010.1 - 4.0 - - - - - - -
27/04:46pm 10.9 W 16 26 1010.0 - 3.6 - - - - - - -
27/04:30pm 11.5 W 18 26 1009.7 - 3.2 - - - - - - -
27/04:06pm 11.4 W 19 29 1009.6 - 3.2 - - - - - - -
27/04:00pm 11.2 W 20 29 1009.5 - 3.2 - - - - - - -
27/03:58pm 11.0 W 19 29 1009.5 - 3.2 - - - - - - -
27/03:30pm 10.8 W 13 20 1009.7 - 1.0 - - - - - - -
27/03:00pm 11.0 W 16 25 1009.8 - 0.4 - - - - - - -
27/02:35pm 11.2 W 20 30 1009.3 - 0.4 - - - - - - -
27/02:30pm 11.4 W 20 28 1009.4 - 0.4 - - - - - - -
27/02:08pm 11.7 W 16 27 1009.3 - 0.4 - - - - - - -
27/02:00pm 11.3 W 14 24 1009.4 - 0.4 - - - - - - -
27/01:44pm 11.4 W 17 27 1009.4 - 0.0 - - - - - - -
27/01:30pm 11.2 W 18 26 1009.6 - 0.0 - - - - - - -
27/01:18pm 11.3 W 16 28 1009.4 - 0.0 - - - - - - -
27/01:00pm 12.7 W 15 21 1009.5 - 0.0 - - - - - - -
27/12:30pm 13.5 W 20 24 1009.3 - 0.0 - - - - - - -
27/12:00pm 12.8 W 17 25 1009.4 - 0.0 - - - - - - -
27/11:30am 12.5 W 18 24 1009.2 - 0.0 - - - - - - -
27/11:00am 12.8 W 17 22 1009.5 - 0.0 - - - - - - -
27/10:30am 11.1 W 20 28 1009.2 - 0.0 - - - - - - -
27/10:27am 11.3 W 18 28 1009.1 - 0.0 - - - - - - -
27/10:00am 11.6 W 18 26 1009.1 - 0.0 - - - - - - -
27/09:30am 11.1 W 20 27 1008.9 - 0.0 - - - - - - -
27/09:00am 11.1 W 18 27 1008.7 - 10.8 - - - - - - -
27/08:30am 11.1 W 16 24 1008.3 - 10.8 - - - - - - -
27/08:00am 10.7 W 15 24 1008.4 - 10.8 - - - - - - -
27/07:30am 9.8 W 15 21 1008.1 - 10.8 - - - - - - -
27/07:00am 9.2 W 12 23 1007.8 - 10.8 - - - - - - -
27/06:30am 8.7 WNW 16 24 1007.6 - 10.8 - - - - - - -
27/06:00am 8.3 WNW 15 22 1007.5 - 10.8 - - - - - - -
27/05:30am 8.4 WNW 16 23 1007.3 - 10.8 - - - - - - -
27/05:00am 8.4 W 15 22 1007.1 - 10.8 - - - - - - -
27/04:42am 8.3 W 15 26 1006.9 - 10.8 - - - - - - -
27/04:30am 8.3 W 15 20 1007.0 - 10.8 - - - - - - -
27/04:00am 8.2 WNW 17 24 1007.0 - 10.8 - - - - - - -
27/03:40am 8.1 WNW 17 27 1006.9 - 10.8 - - - - - - -
27/03:30am 8.0 WNW 18 25 1006.7 - 10.8 - - - - - - -
27/03:00am 7.8 WNW 23 40 1006.4 - 10.2 - - - - - - -
27/02:30am 8.0 WNW 22 32 1006.2 - 9.2 - - - - - - -
27/02:11am 8.2 WNW 20 30 1006.4 - 8.8 - - - - - - -
27/02:00am 8.3 WNW 24 32 1006.7 - 8.8 - - - - - - -
27/01:30am 8.1 WNW 27 43 1006.8 - 8.6 - - - - - - -
27/01:07am 8.6 WNW 15 30 1007.7 - 8.4 - - - - - - -
27/01:00am 8.9 WNW 14 24 1008.1 - 8.4 - - - - - - -
27/12:30am 10.0 NNW 13 21 1008.2 - 7.0 - - - - - - -
27/12:10am 10.4 NNW 15 23 1008.1 - 6.8 - - - - - - -
27/12:00am 10.0 N 7 10 1008.6 - 6.4 - - - - - - -
 
Date/Time
EST
Temp
°C
Wind Pressure Rain since
9am
mm
Weather Cloud Vis
km
Sea
Height
m
Swell
Dir  Spd
kts
Gust
kts
hPa Trend Height
m
Period
s
Dir
26/11:30pm 10.0 N 3 7 1008.7 - 5.6 - - - - - - -
26/11:00pm 10.3 NNE 5 8 1009.1 - 5.2 - - - - - - -
26/10:30pm 10.4 N 6 10 1009.3 - 3.6 - - - - - - -
26/10:00pm 10.5 NNE 12 17 1009.1 - 1.2 - - - - - - -
26/09:30pm 10.1 NNE 10 14 1009.3 - 1.2 - - - - - - -
26/08:30pm 10.2 N 12 17 1010.0 - 0.8 - - - - - - -
26/08:00pm 11.1 NNE 10 14 1009.7 - 0.0 - - - - - - -
26/07:30pm 10.8 NNE 11 14 1009.6 - 0.0 - - - - - - -
26/07:00pm 11.0 N 11 14 1009.6 - 0.0 - - - - - - -
26/06:30pm 11.1 N 10 13 1009.3 - 0.0 - - - - - - -
26/06:00pm 11.4 N 7 9 1009.4 - 0.0 - - - - - - -
26/05:30pm 11.8 W 3 6 1009.4 - 0.0 - - - - - - -
26/04:30pm 12.8 WSW 11 14 1009.0 - 0.0 - - - - - - -
26/04:00pm 12.8 WSW 9 13 1009.2 - 0.0 - - - - - - -
26/03:30pm 12.5 W 10 15 1009.3 - 0.0 - - - - - - -
26/03:00pm 12.0 W 10 16 1009.5 - 0.0 - - - - - - -
26/02:30pm 13.2 W 11 19 1009.6 - 0.0 - - - - - - -
26/02:00pm 13.8 W 11 17 1009.6 - 0.0 - - - - - - -
26/01:30pm 14.4 W 13 19 1009.8 - 0.0 - - - - - - -
26/01:00pm 14.1 W 10 18 1010.2 - 0.0 - - - - - - -
26/12:30pm 14.6 W 8 16 1010.4 - 0.0 - - - - - - -
26/12:00pm 13.4 W 8 14 1011.0 - 0.0 - - - - - - -
26/11:30am 13.7 WNW 5 13 1011.1 - 0.0 - - - - - - -
26/11:00am 12.5 WNW 9 16 1011.3 - 0.0 - - - - - - -
26/10:30am 12.3 WNW 5 16 1011.5 - 0.0 - - - - - - -
26/10:00am 11.8 SW 3 10 1011.7 - 0.0 - - - - - - -
26/09:30am 11.2 NW 7 13 1012.0 - 0.0 - - - - - - -
26/09:00am 10.7 NW 10 17 1012.0 - 0.0 - - - - - - -
26/08:30am 10.4 NNW 11 15 1012.0 - 0.0 - - - - - - -
26/08:00am 10.0 NW 12 18 1012.0 - 0.0 - - - - - - -
26/07:30am 9.8 WNW 12 18 1012.0 - 0.0 - - - - - - -
26/07:00am 9.7 WNW 12 17 1012.1 - 0.0 - - - - - - -
26/06:30am 10.2 NW 11 16 1012.0 - 0.0 - - - - - - -
26/06:00am 9.8 NW 10 14 1012.0 - 0.0 - - - - - - -
26/05:30am 10.0 NW 11 14 1011.8 - 0.0 - - - - - - -
26/05:00am 10.1 WNW 8 12 1011.7 - 0.0 - - - - - - -
26/04:30am 9.9 WNW 9 11 1011.6 - 0.0 - - - - - - -
26/04:00am 9.8 WNW 9 13 1011.6 - 0.0 - - - - - - -
26/03:30am 9.6 WNW 9 12 1011.6 - 0.0 - - - - - - -
26/03:00am 9.7 WNW 9 11 1011.7 - 0.0 - - - - - - -
26/02:30am 9.6 W 9 12 1011.8 - 0.0 - - - - - - -
26/02:00am 9.7 W 9 11 1012.0 - 0.0 - - - - - - -
26/01:30am 9.9 W 10 12 1012.1 - 0.0 - - - - - - -
26/01:00am 10.6 WSW 10 16 1012.3 - 0.0 - - - - - - -
26/12:30am 10.8 W 12 18 1012.3 - 0.0 - - - - - - -
26/12:00am 11.0 WSW 18 25 1012.4 - 0.0 - - - - - - -
 
Date/Time
EST
Temp
°C
Wind Pressure Rain since
9am
mm
Weather Cloud Vis
km
Sea
Height
m
Swell
Dir  Spd
kts
Gust
kts
hPa Trend Height
m
Period
s
Dir
25/11:30pm 11.0 WSW 21 28 1012.0 - 0.0 - - - - - - -
25/11:00pm 10.9 WSW 27 31 1011.9 - 0.0 - - - - - - -
25/10:30pm 10.9 WSW 27 30 1012.2 - 0.0 - - - - - - -
25/10:00pm 10.9 WSW 23 30 1012.1 - 0.0 - - - - - - -
25/09:37pm 11.0 W 18 28 1012.1 - 0.0 - - - - - - -
25/09:30pm 11.0 W 19 25 1012.1 - 0.0 - - - - - - -
25/09:11pm 11.0 WSW 24 34 1011.7 - 0.0 - - - - - - -
25/09:00pm 11.0 W 24 32 1011.7 - 0.0 - - - - - - -
25/08:30pm 11.1 WSW 25 32 1011.3 - 0.0 - - - - - - -
25/08:16pm 11.1 WSW 25 35 1011.0 - 0.0 - - - - - - -
25/08:00pm 11.1 W 22 30 1011.0 - 0.0 - - - - - - -
25/07:30pm 11.1 WSW 26 36 1010.4 - 0.0 - - - - - - -
25/07:28pm 11.1 WSW 25 35 1010.4 - 0.0 - - - - - - -
25/07:00pm 11.1 W 23 31 1010.3 - 0.0 - - - - - - -
25/06:40pm 11.1 WSW 23 33 1010.0 - 0.0 - - - - - - -
25/06:30pm 11.1 WSW 24 30 1010.0 - 0.0 - - - - - - -
25/06:00pm 11.2 W 24 35 1009.6 - 0.0 - - - - - - -
25/05:31pm 11.3 W 24 34 1009.3 - 0.0 - - - - - - -
25/05:30pm 11.2 WSW 25 34 1009.3 - 0.0 - - - - - - -
25/05:20pm 11.3 W 22 32 1009.2 - 0.0 - - - - - - -
25/05:00pm 11.5 W 22 29 1009.1 - 0.0 - - - - - - -
25/04:32pm 11.7 W 22 32 1009.1 - 0.0 - - - - - - -
25/04:30pm 11.8 W 23 32 1009.2 - 0.0 - - - - - - -
25/04:00pm 11.3 WSW 26 36 1008.8 - 0.0 - - - - - - -
25/03:35pm 11.4 WSW 33 36 1008.7 - 0.0 - - - - - - -
25/03:30pm 11.6 W 19 29 1009.1 - 0.0 - - - - - - -
25/03:26pm 11.7 W 20 30 1009.0 - 0.0 - - - - - - -
25/03:03pm 11.0 WSW 21 37 1009.0 - 0.0 - - - - - - -
25/03:00pm 10.9 WSW 33 39 1008.9 - 0.0 - - - - - - -
25/02:51pm 10.9 WSW 36 39 1008.4 - 0.0 - - - - - - -
25/02:37pm 12.1 W 21 31 1009.0 - 0.0 - - - - - - -
25/02:30pm 11.8 W 23 31 1008.9 - 0.0 - - - - - - -
25/02:14pm 12.0 W 21 31 1009.0 - 0.0 - - - - - - -
25/02:00pm 12.3 W 22 29 1009.0 - 0.0 - - - - - - -
25/01:31pm 12.3 W 22 32 1008.9 - 0.0 - - - - - - -
25/01:30pm 12.1 W 23 32 1008.9 - 0.0 - - - - - - -
25/01:00pm 11.5 WSW 25 36 1008.3 - 0.0 - - - - - - -
25/12:30pm 12.2 W 22 33 1008.6 - 0.0 - - - - - - -
25/12:20pm 12.0 W 20 30 1008.6 - 0.0 - - - - - - -
25/12:00pm 12.9 W 26 33 1008.6 - 0.0 - - - - - - -
25/11:36am 13.0 W 22 32 1008.5 - 0.0 - - - - - - -
25/11:30am 12.8 W 25 33 1008.2 - 0.0 - - - - - - -
25/11:00am 12.8 W 22 33 1008.0 - 0.0 - - - - - - -
25/10:50am 12.8 W 23 33 1008.0 - 0.0 - - - - - - -
25/10:30am 12.1 W 28 35 1007.5 - 0.0 - - - - - - -
25/10:00am 12.2 W 24 35 1007.7 - 0.0 - - - - - - -
25/09:30am 11.6 W 26 36 1007.1 - 0.0 - - - - - - -
25/09:00am 12.1 W 24 37 1007.0 - 4.2 - - - - - - -
25/08:32am 11.6 W 24 34 1006.9 - 4.2 - - - - - - -
25/08:30am 11.5 W 25 34 1006.7 - 4.2 - - - - - - -
25/08:00am 11.4 W 22 33 1006.3 - 4.2 - - - - - - -
25/07:30am 11.3 W 24 35 1006.0 - 4.2 - - - - - - -
25/07:02am 11.5 W 21 32 1005.8 - 4.2 - - - - - - -
25/07:00am 11.5 W 21 29 1006.0 - 4.2 - - - - - - -
25/06:42am 11.5 W 22 32 1005.7 - 4.2 - - - - - - -
25/06:30am 11.6 WSW 24 33 1005.5 - 4.2 - - - - - - -
25/06:18am 11.5 W 22 32 1005.2 - 4.2 - - - - - - -
25/06:00am 11.4 W 25 32 1005.2 - 4.2 - - - - - - -
25/05:30am 11.4 W 22 32 1004.8 - 4.2 - - - - - - -
25/05:00am 11.3 W 21 31 1004.9 - 4.2 - - - - - - -
25/04:32am 11.4 W 20 30 1004.6 - 4.2 - - - - - - -
25/04:30am 11.4 W 19 27 1004.6 - 4.2 - - - - - - -
25/04:19am 11.4 W 18 29 1004.5 - 4.2 - - - - - - -
25/04:00am 11.4 W 21 29 1004.3 - 4.2 - - - - - - -
25/03:30am 11.4 W 17 30 1004.0 - 4.0 - - - - - - -
25/03:00am 12.1 WNW 16 33 1004.3 - 0.8 - - - - - - -
25/02:30am 12.5 WNW 18 29 1004.3 - 0.6 - - - - - - -
25/02:00am 12.6 WNW 21 32 1004.0 - 0.6 - - - - - - -
25/01:40am 12.7 WNW 19 29 1004.5 - 0.6 - - - - - - -
25/01:30am 12.7 WNW 23 30 1004.5 - 0.6 - - - - - - -
25/01:00am 12.8 W 19 33 1004.4 - 0.4 - - - - - - -
25/12:30am 13.2 W 15 25 1004.9 - 0.0 - - - - - - -
25/12:29am 13.3 W 15 25 1004.8 - 0.0 - - - - - - -
25/12:00am 14.2 W 15 24 1004.9 - 0.0 - - - - - - -
 
Date/Time
EST
Temp
°C
Wind Pressure Rain since
9am
mm
Weather Cloud Vis
km
Sea
Height
m
Swell
Dir  Spd
kts
Gust
kts
hPa Trend Height
m
Period
s
Dir
24/11:59pm 14.2 W 15 24 1004.8 - 0.0 - - - - - - -
24/11:30pm 14.4 W 8 13 1005.3 - 0.0 - - - - - - -
24/11:00pm 14.6 W 6 10 1005.6 - 0.0 - - - - - - -
24/10:30pm 14.6 N 5 9 1005.7 - 0.0 - - - - - - -
24/10:00pm 13.6 NNE 7 8 1005.9 - 0.0 - - - - - - -
24/09:30pm 13.7 NNE 7 9 1006.0 - 0.0 - - - - - - -
24/09:00pm 13.4 NNE 9 11 1006.0 - 0.0 - - - - - - -
24/08:30pm 13.0 NNE 10 12 1006.0 - 0.0 - - - - - - -
24/08:00pm 13.0 NNE 9 11 1005.9 - 0.0 - - - - - - -
24/07:30pm 12.6 NNE 11 12 1006.0 - 0.0 - - - - - - -
24/07:00pm 12.4 NNE 10 12 1006.0 - 0.0 - - - - - - -
24/06:30pm 12.4 NE 10 11 1005.9 - 0.0 - - - - - - -
24/06:00pm 12.1 NNE 9 11 1005.9 - 0.0 - - - - - - -
24/05:30pm 12.6 NNE 9 11 1005.8 - 0.0 - - - - - - -

Other Formats:

Comma delimited format used in spreadsheet applications
http://www.bom.gov.au/fwo/IDV60701/IDV60701.94893.axf

JavaScript Object Notation format (JSON) in row-major order
http://www.bom.gov.au/fwo/IDV60701/IDV60701.94893.json